Location: Deuil
(48.9767°N, 2.3272°E)
Time: 11:14:36
(UTC+00:00)

Cosmos 2228 - Pass Details

Date: 07 June 2022
Orbit: 586 x 617 km, 82.5° (Epoch: 01 July)

Event Time Altitude Azimuth Distance (km) Brightness Sun altitude
Rises 01:04:01 0° 347° (NNW) 2,873 7.5 -16.4°
Reaches altitude 10° 01:06:15 10° 345° (NNW) 1,960 6.5 -16.3°
Maximum altitude 01:10:33 66° 264° (W) 658 3.0 -16.0°
Enters shadow 01:12:35 30° 190° (S) 1,091 3.7 -15.9°
